Regional Weather Roundup
Issued by NWS

Home | Current Version | Previous Version | Graphics & Text | Print | Product List | Glossary On
Versions: 1 2 3 4 5 6 7 8 9 10 11 12 13 14 15 16 17 18 19 20 21 22 23 24 25 26 27 28 29 30 31 32 33 34 35 36 37 38 39 40 41 42 43 44 45 46 47 48 49 50
000
ASUS43 KBIS 262010
RWRND

NORTH DAKOTA REGIONAL WEATHER ROUNDUP
NATIONAL WEATHER SERVICE BISMARCK ND
200 PM CST MON JAN 26 2015

NOTE: "FAIR" INDICATES FEW OR NO CLOUDS BELOW 12,000 FEET WITH NO
SIGNIFICANT WEATHER AND/OR OBSTRUCTIONS TO VISIBILITY.


NDZ001>003-009>011-017-262100-
NORTHWEST NORTH DAKOTA

CITY           SKY/WX    TMP DP  RH WIND       PRES   REMARKS
WILLISTON      SUNNY     49  32  52 SW7       29.95F
MINOT          SUNNY     44  33  65 NW10      29.93F
MINOT AFB      SUNNY     42  37  83 NW10      29.93S
$$

NDZ018>021-031>035-040>046-262100-
SOUTHWEST NORTH DAKOTA

CITY           SKY/WX    TMP DP  RH WIND       PRES   REMARKS
BISMARCK       SUNNY     48  31  51 NW9       29.96S
DICKINSON      MOSUNNY   50  32  50 W10       29.96F
GARRISON         N/A     45  35  68 NW8       29.93F
HETTINGER ARPT MOSUNNY   52  31  44 W12       29.99F
$$

NDZ004>008-012>016-024-026-027-054-262100-
NORTHEAST NORTH DAKOTA

CITY           SKY/WX    TMP DP  RH WIND       PRES   REMARKS
GRAND FORKS    CLOUDY    33  27  78 N22G28    29.88R
GRND FRKS AFB  CLOUDY    36  28  74 N16G23    29.88S
DEVILS LAKE    SUNNY     37  30  75 NW15      29.88F
$$

NDZ022-023-025-028>030-036>039-047>053-262100-
SOUTHEAST NORTH DAKOTA

CITY           SKY/WX    TMP DP  RH WIND       PRES   REMARKS
FARGO          CLOUDY    42  32  67 NW20      29.86R
JAMESTOWN      SUNNY     41  33  73 NW18      29.88R
$$



USA.gov is the U.S. government's official web portal to all federal, state and local government web resources and services.